Regional Weather Roundup
Issued by NWS

Current Version | Previous Version | Text Only | Print | Product List | Glossary On
Versions: 1 2 3 4 5 6 7 8 9 10 11 12 13 14 15 16 17 18 19 20 21 22 23 24 25 26 27 28 29 30 31 32 33 34 35 36 37 38 39 40 41 42 43 44 45 46 47 48 49 50
000
ASUS44 KBMX 280610
RWRAL

ALABAMA REGIONAL WEATHER ROUNDUP
NATIONAL WEATHER SERVICE BIRMINGHAM AL
1200 AM CST WED JAN 28 2015

NOTE: "FAIR" INDICATES FEW OR NO CLOUDS BELOW 12,000 FEET
WITH NO SIGNIFICANT WEATHER AND/OR OBSTRUCTIONS TO VISIBILITY.

THE REMARK "TC" DENOTES TEMPERATURE IN DEGREES CELSIUS.

ALZ001>011-014-016>018-020-280700-
NORTH ALABAMA

CITY           SKY/WX    TMP DP  RH WIND       PRES   REMARKS
MUSCLE SHOALS  CLEAR     37  26  64 NE5       30.23S WCI  33
6HR MIN TEMP:  37; 6HR MAX TEMP:  48;

HUNTSVILLE     CLOUDY    39  27  62 N12       30.20S WCI  32
6HR MIN TEMP:  38; 6HR MAX TEMP:  47;

DECATUR        CLEAR     33  25  72 N8        30.21F WCI  26
6HR MIN TEMP:  33; 6HR MAX TEMP:  43;

HALEYVILLE       N/A     32  28  85 CALM      30.21F
6HR MIN TEMP:  32; 6HR MAX TEMP:  43;

GADSDEN        PTCLDY    34  27  75 NW5       30.18S WCI  30
6HR MIN TEMP:  30; 6HR MAX TEMP:  46;

$$

ALZ012-013-022-023-030>036-040>044-280700-
WEST CENTRAL ALABAMA

CITY           SKY/WX    TMP DP  RH WIND       PRES   REMARKS
TUSCALOOSA     CLEAR     40  31  70 N7        30.21R
6HR MIN TEMP:  39; 6HR MAX TEMP:  52;

$$

ALZ015-024>027-033>036-040>044-280700-
CENTRAL ALABAMA

CITY           SKY/WX    TMP DP  RH WIND       PRES   REMARKS
BIRMINGHAM     CLEAR     36  29  75 N7        30.19F WCI  30
6HR MIN TEMP:  36; 6HR MAX TEMP:  44;

MONTGOMERY     CLEAR     41  31  67 W5        30.16R
6HR MIN TEMP:  36; 6HR MAX TEMP:  54;

SHELBY CO ARPT CLEAR     41  31  67 N7        30.17R
6HR MIN TEMP:  39; 6HR MAX TEMP:  50;

MAXWELL AFB    CLEAR     42  31  65 NW5       30.15R
6HR MIN TEMP:  37; 6HR MAX TEMP:  51;

GREENVILLE     FAIR      40  31  70 NW3       30.14R
6HR MIN TEMP:  39; 6HR MAX TEMP:  55;

$$

ALZ019-021-028-029-037-038-045>048-280700-
EAST CENTRAL ALABAMA

CITY           SKY/WX    TMP DP  RH WIND       PRES   REMARKS
ANNISTON       CLEAR     38  29  70 CALM      30.17S
6HR MIN TEMP:  36; 6HR MAX TEMP:  48;

ALEXANDER CITY CLEAR     40  30  65 N5        30.15S
6HR MIN TEMP:  37; 6HR MAX TEMP:  52;

AUBURN         CLEAR     37  27  65 N9        30.15R WCI  31
6HR MIN TEMP:  36; 6HR MAX TEMP:  46;

$$

ALZ051>064-280700-
SOUTHWEST ALABAMA

CITY           SKY/WX    TMP DP  RH WIND       PRES   REMARKS
MOBILE         CLEAR     47  34  60 N3        30.17R
6HR MIN TEMP:  44; 6HR MAX TEMP:  59;

BROOKLEY FIELD CLEAR     45  36  70 NW7       30.18R
6HR MIN TEMP:  45; 6HR MAX TEMP:  57;

EVERGREEN      CLEAR     38  35  89 CALM      30.16R
6HR MIN TEMP:  38; 6HR MAX TEMP:  56;

$$

ALZ049-050-065>069-280700-
SOUTHEAST ALABAMA

CITY           SKY/WX    TMP DP  RH WIND       PRES   REMARKS
DOTHAN         CLEAR     40  32  73 CALM      30.15R
6HR MIN TEMP:  39; 6HR MAX TEMP:  51;

OZARK          CLEAR     42  33  71 NW5       30.12S
6HR MIN TEMP:  42; 6HR MAX TEMP:  54; 6HR PCP: TRACE;

TROY           CLEAR     36  32  85 CALM      30.15R
6HR MIN TEMP:  34; 6HR MAX TEMP:  52;

EUFAULA        FAIR      40  30  67 NW3       30.13R
6HR MIN TEMP:  36; 6HR MAX TEMP:  53;

$$


USA.gov is the U.S. government's official web portal to all federal, state and local government web resources and services.